Regional Weather Roundup
Issued by NWS

Home | Current Version | Previous Version | Graphics & Text | Print | Product List | Glossary On
Versions: 1 2 3 4 5 6 7 8 9 10 11 12 13 14 15 16 17 18 19 20 21 22 23 24 25 26 27 28 29 30 31 32 33 34 35 36 37 38 39 40 41 42 43 44 45 46 47 48 49 50
000
ASUS43 KFSD 201610
RWRSD

WEATHER ROUNDUP FOR SOUTH DAKOTA
NATIONAL WEATHER SERVICE SIOUX FALLS SD
1000 AM CST FRI JAN 20 2017

NOTE: "FAIR" INDICATES FEW OR NO CLOUDS BELOW 12,000 FEET WITH NO
SIGNIFICANT WEATHER AND/OR OBSTRUCTIONS TO VISIBILITY.


SDZ001>005-009-010-012>017-201700-
NORTHWEST AND NORTH CENTRAL SOUTH DAKOTA

CITY           SKY/WX    TMP DP  RH WIND       PRES   REMARKS
BUFFALO          N/A     34  28  79 NW24      29.29S WCI  21
FAITH            N/A     22  20  92 N16       29.33F WCI   8
MOBRIDGE       CLOUDY    25  21  85 CALM      29.37R FOG
$$

SDZ012>016-024>037-041>051-057-063-072>074-201700-
SOUTHWEST AND SOUTH CENTRAL SOUTH DAKOTA

CITY           SKY/WX    TMP DP  RH WIND       PRES   REMARKS
RAPID CTY ARPT CLOUDY    37  29  72 NW10      29.37F
PIERRE         FOG       14  12  92 NE3       29.39F VSB 1/4
CUSTER         CLOUDY    35  24  64 N8        29.36F WCI  29
ELLSWORTH AFB  CLOUDY    37  30  75 N20       29.36S
PHILIP         CLOUDY    20  18  92 W3        29.39R
PINE RIDGE     CLOUDY    26  22  84 CALM      29.39F
SPEARFISH      FAIR      34  27  75 W12       29.42S WCI  25
WINNER         FAIR      32  25  75 SW6       29.40R WCI  26
$$

SDZ004>011-016>023-039-040-201700-
NORTHEAST SOUTH DAKOTA

CITY           SKY/WX    TMP DP  RH WIND       PRES   REMARKS
ABERDEEN       CLOUDY    35  32  88 SE10      29.44S WCI  27
WATERTOWN      CLOUDY    36  35  96 SE16      29.45S
BROOKINGS      CLOUDY    36  35  96 SE15      29.47F FOG
SISSETON         N/A     34  34 100 S8        29.49S WCI  27
$$

SDZ017-020-022-023-036>040-048>070-201700-
SOUTHEAST SOUTH DAKOTA

CITY           SKY/WX    TMP DP  RH WIND       PRES   REMARKS
SIOUX FALLS    CLOUDY    39  38  96 SE12      29.50F
HURON          CLOUDY    37  36  96 SE13      29.42F
CHAMBERLAIN    FOG       29  29 100 SW6       29.40S VSB<1/4 WCI  23
MITCHELL       CLOUDY    38  37  97 S14       29.44F
YANKTON        CLOUDY    39  37  93 SE9       29.49S
$$

ABBREVIATIONS USED IN REMARKS
   TC - TEMPERATURE IN CELSIUS
  WCI - WIND CHILL INDEX
   HX - HEAT INDEX
  VSB - VISIBILITY





USA.gov is the U.S. government's official web portal to all federal, state and local government web resources and services.